Falfurrias, TX

10:56 PM CST on February 08, 2016 (GMT -0600)
Falfurrias

Weather History for KBKS - March, 2013

Change the Weather History Date:

Sunday, March 10, 2013

  Actual Average (KNQI) Record (KNQI)
Temperature  
Mean Temperature 74 °F -  
Max Temperature 84 °F 73 °F 89 °F (2006)
Min Temperature 64 °F 55 °F 35 °F (1998)
Cooling Degree Days 10    
Growing Degree Days 24 (Base 50)    
Moisture  
Dew Point 45 °F    
Average Humidity 42    
Maximum Humidity 91    
Minimum Humidity 14    
Precipitation  
Precipitation 0.00 in - - ()
Sea Level Pressure  
Sea Level Pressure 29.84 in    
Wind  
Wind Speed 17 mph (North)    
Max Wind Speed 29 mph    
Max Gust Speed 36 mph    
Visibility 10 miles    
Events      
Averages and records for this station are not official NWS values.
T = Trace of Precipitation, MM = Missing Value Source: NWS Daily Summary

Daily Weather History Graph

Daily Weather History Graph

Search for Another Location

Airport or City:

Trip Planner

Search our weather history database for the weather conditions in past years. The results will help you decide how hot, cold, wet, or windy it might be!

Date:

Astronomy

Mar. 10, 2013 Rise Set
Actual Time 7:46 AM CDT 7:38 PM CDT
Civil Twilight 7:23 AM CDT 8:01 PM CDT
Nautical Twilight 6:56 AM CDT 8:28 PM CDT
Astronomical Twilight 6:29 AM CDT 8:55 PM CDT
Moon 6:44 AM CDT (3/10) 6:48 PM CDT (3/10)
Length of Visible Light 12h 38m
Length of Day
11h 51m
Waning Crescent, 2% of the Moon is Illuminated
Mar 10
Waning Crescent
Mar 11
New
Mar 19
First Quarter
Mar 27
Full
Apr 2
Last Quarter

Hourly Weather History & Observations

Time (CDT) Temp. Dew Point Humidity Pressure Visibility Wind Dir Wind Speed Gust Speed Precip Events Conditions
12:15 AM 74.7 °F 68.0 °F 80% 29.65 in 10.0 mi South 23.0 mph 29.9 mph N/A   Clear
12:35 AM 74.8 °F 68.2 °F 80% 29.63 in 10.0 mi South 20.7 mph 29.9 mph N/A   Clear
12:55 AM 74.8 °F 68.4 °F 80% 29.62 in 10.0 mi South 28.8 mph 35.7 mph N/A   Scattered Clouds
1:15 AM 75.2 °F 68.4 °F 79% 29.62 in 10.0 mi South 23.0 mph 34.5 mph N/A   Scattered Clouds
1:35 AM 75.2 °F 68.5 °F 80% 29.61 in 10.0 mi South 19.6 mph 31.1 mph N/A   Scattered Clouds
1:55 AM 75.2 °F 68.5 °F 80% 29.61 in 10.0 mi South 19.6 mph 29.9 mph N/A   Scattered Clouds
3:15 AM 75.2 °F 68.4 °F 79% 29.60 in 10.0 mi South 26.5 mph 32.2 mph N/A   Scattered Clouds
3:35 AM 75.2 °F 68.4 °F 79% 29.59 in 10.0 mi South 21.9 mph 31.1 mph N/A   Scattered Clouds
3:55 AM 75.2 °F 68.2 °F 79% 29.60 in 10.0 mi South 19.6 mph 27.6 mph N/A   Scattered Clouds
4:15 AM 75.6 °F 68.4 °F 78% 29.60 in 10.0 mi South 20.7 mph 26.5 mph N/A   Overcast
4:35 AM 75.6 °F 68.4 °F 78% 29.61 in 10.0 mi South 15.0 mph 26.5 mph N/A   Overcast
4:55 AM 76.1 °F 68.5 °F 77% 29.64 in 10.0 mi SSW 18.4 mph - N/A   Overcast
5:15 AM 76.3 °F 68.5 °F 77% 29.69 in 10.0 mi West 9.2 mph 17.3 mph N/A   Overcast
5:35 AM 76.3 °F 68.4 °F 76% 29.70 in 10.0 mi West 10.4 mph - N/A   Overcast
5:55 AM 76.1 °F 68.4 °F 77% 29.71 in 10.0 mi West 6.9 mph - N/A   Overcast
6:15 AM 76.1 °F 68.4 °F 77% 29.72 in 10.0 mi West 9.2 mph - N/A   Overcast
7:35 AM 72.0 °F 69.3 °F 91% 29.75 in 7.0 mi NW 4.6 mph - N/A   Overcast
7:55 AM 71.8 °F 69.1 °F 91% 29.76 in 7.0 mi WNW 8.1 mph - N/A   Overcast
8:15 AM 70.0 °F 65.3 °F 85% 29.78 in 10.0 mi NNW 16.1 mph 25.3 mph N/A   Overcast
8:35 AM 68.0 °F 62.6 °F 83% 29.79 in 10.0 mi North 17.3 mph 34.5 mph N/A   Overcast
8:55 AM 68.0 °F 61.5 °F 80% 29.81 in 10.0 mi North 16.1 mph 26.5 mph N/A   Overcast
9:15 AM 68.7 °F 57.9 °F 68% 29.82 in 10.0 mi North 16.1 mph 25.3 mph N/A   Overcast
9:35 AM 69.8 °F 53.4 °F 56% 29.84 in 10.0 mi North 21.9 mph 28.8 mph N/A   Overcast
9:55 AM 70.7 °F 49.8 °F 48% 29.85 in 10.0 mi North 17.3 mph 28.8 mph N/A   Overcast
10:15 AM 71.6 °F 48.7 °F 44% 29.86 in 10.0 mi North 17.3 mph 25.3 mph N/A   Overcast
10:35 AM 72.0 °F 48.7 °F 44% 29.88 in 10.0 mi North 17.3 mph 26.5 mph N/A   Overcast
10:55 AM 74.7 °F 48.4 °F 39% 29.88 in 10.0 mi North 18.4 mph 25.3 mph N/A   Overcast
11:15 AM 73.8 °F 44.4 °F 35% 29.89 in 10.0 mi North 21.9 mph 28.8 mph N/A   Overcast
11:35 AM 76.3 °F 42.6 °F 30% 29.90 in 10.0 mi North 16.1 mph 28.8 mph N/A   Overcast
11:55 AM 76.3 °F 39.6 °F 27% 29.91 in 10.0 mi North 19.6 mph 29.9 mph N/A   Overcast
12:15 PM 76.8 °F 39.7 °F 26% 29.91 in 10.0 mi North 18.4 mph 24.2 mph N/A   Overcast
12:35 PM 77.9 °F 39.9 °F 26% 29.90 in 10.0 mi North 21.9 mph 28.8 mph N/A   Scattered Clouds
12:55 PM 78.1 °F 39.9 °F 25% 29.90 in 10.0 mi North 18.4 mph 26.5 mph N/A   Scattered Clouds
1:15 PM 80.4 °F 40.3 °F 24% 29.89 in 10.0 mi NNE 15.0 mph 23.0 mph N/A   Clear
1:35 PM 80.6 °F 40.3 °F 24% 29.88 in 10.0 mi NNE 12.7 mph 23.0 mph N/A   Clear
1:55 PM 81.5 °F 38.5 °F 22% 29.88 in 10.0 mi North 16.1 mph 24.2 mph N/A   Clear
2:15 PM 82.6 °F 36.9 °F 19% 29.86 in 10.0 mi North 11.5 mph 25.3 mph N/A   Clear
2:35 PM 82.9 °F 33.1 °F 17% 29.86 in 10.0 mi North 16.1 mph 24.2 mph N/A   Clear
2:55 PM 83.3 °F 32.4 °F 16% 29.85 in 10.0 mi North 17.3 mph 27.6 mph N/A   Clear
3:15 PM 83.1 °F 32.9 °F 16% 29.85 in 10.0 mi North 16.1 mph 25.3 mph N/A   Clear
3:35 PM 84.2 °F 32.2 °F 15% 29.84 in 10.0 mi North 15.0 mph 26.5 mph N/A   Clear
3:55 PM 84.6 °F 31.8 °F 15% 29.84 in 10.0 mi North 16.1 mph 26.5 mph N/A   Scattered Clouds
4:15 PM 84.2 °F 31.1 °F 15% 29.83 in 10.0 mi NNW 16.1 mph 24.2 mph N/A   Clear
4:35 PM 84.2 °F 31.5 °F 15% 29.83 in 10.0 mi North 15.0 mph 23.0 mph N/A   Clear
4:55 PM 84.4 °F 31.6 °F 15% 29.83 in 10.0 mi North 16.1 mph 25.3 mph N/A   Clear
5:15 PM 83.5 °F 30.7 °F 15% 29.82 in 10.0 mi North 20.7 mph 26.5 mph N/A   Clear
5:35 PM 82.9 °F 29.8 °F 15% 29.83 in 10.0 mi NNW 12.7 mph 24.2 mph N/A   Clear
5:55 PM 82.8 °F 29.5 °F 14% 29.83 in 10.0 mi NNW 16.1 mph 27.6 mph N/A   Clear
6:15 PM 81.9 °F 30.0 °F 15% 29.85 in 10.0 mi North 15.0 mph 20.7 mph N/A   Clear
6:35 PM 81.1 °F 29.3 °F 15% 29.85 in 10.0 mi North 15.0 mph 24.2 mph N/A   Clear
6:55 PM 79.9 °F 29.1 °F 16% 29.86 in 10.0 mi North 12.7 mph 19.6 mph N/A   Clear
7:15 PM 78.8 °F 28.4 °F 16% 29.87 in 10.0 mi North 15.0 mph 18.4 mph N/A   Clear
7:35 PM 77.0 °F 28.6 °F 17% 29.88 in 10.0 mi North 13.8 mph 20.7 mph N/A   Clear
7:55 PM 75.9 °F 28.4 °F 17% 29.89 in 10.0 mi North 10.4 mph 19.6 mph N/A   Clear
8:15 PM 74.3 °F 29.1 °F 19% 29.91 in 10.0 mi North 9.2 mph - N/A   Clear
8:35 PM 73.4 °F 29.3 °F 20% 29.93 in 10.0 mi North 6.9 mph - N/A   Scattered Clouds
8:55 PM 72.9 °F 29.1 °F 20% 29.95 in 10.0 mi North 8.1 mph - N/A   Clear
9:15 PM 72.1 °F 29.5 °F 21% 29.97 in 10.0 mi North 9.2 mph - N/A   Scattered Clouds
9:35 PM 71.4 °F 29.8 °F 21% 29.99 in 10.0 mi North 8.1 mph - N/A   Scattered Clouds
9:55 PM 70.7 °F 30.7 °F 23% 30.01 in 10.0 mi North 10.4 mph - N/A   Scattered Clouds
10:15 PM 69.1 °F 31.1 °F 24% 30.03 in 10.0 mi North 9.2 mph - N/A   Clear
10:35 PM 68.7 °F 31.8 °F 25% 30.04 in 10.0 mi North 5.8 mph - N/A   Clear
10:55 PM 67.8 °F 32.0 °F 26% 30.06 in 10.0 mi North 11.5 mph - N/A   Clear
11:15 PM 67.5 °F 32.5 °F 27% 30.06 in 10.0 mi North 12.7 mph 18.4 mph N/A   Clear
11:35 PM 67.1 °F 33.3 °F 29% 30.07 in 10.0 mi North 15.0 mph 19.6 mph N/A   Clear
11:55 PM 66.4 °F 33.8 °F 30% 30.07 in 10.0 mi North 10.4 mph 17.3 mph N/A   Clear
12:15 AM 66.0 °F 33.8 °F 30% 30.07 in 10.0 mi North 13.8 mph 17.3 mph N/A   Clear
12:35 AM 65.3 °F 33.4 °F 31% 30.08 in 10.0 mi North 11.5 mph 17.3 mph N/A   Clear
12:55 AM 64.6 °F 33.3 °F 31% 30.08 in 10.0 mi North 9.2 mph - N/A   Clear